Surat Thani, Thailand

3:40 AM +07 on May 23, 2018 (GMT +0700)
Surat Thani

Weather History for VTSB - November, 2013

Change the Weather History Date:

Saturday, November 30, 2013

  Actual Average Record
Temperature  
Mean Temperature 78 °F -  
Max Temperature 82 °F 85 °F - ()
Min Temperature 75 °F 71 °F - ()
Cooling Degree Days 14    
Growing Degree Days 28 (Base 50)    
Moisture  
Dew Point 78 °F    
Average Humidity 97    
Maximum Humidity 100    
Minimum Humidity 87    
Precipitation  
Precipitation 0.00 in 0.17 in - ()
Sea Level Pressure  
Sea Level Pressure 29.85 in    
Wind  
Wind Speed 3 mph ()    
Max Wind Speed 13 mph    
Max Gust Speed -    
Visibility 4.1 miles    
Events Rain , Thunderstorm    
T = Trace of Precipitation, MM = Missing Value Source: Averaged Metar Reports

Daily Weather History Graph

Daily Weather History Graph

Search for Another Location

Airport or City:

Astronomy

Nov. 30, 2013 Rise Set
Actual Time 6:22 AM +07 6:01 PM +07
Civil Twilight 6:00 AM +07 6:23 PM +07
Nautical Twilight 5:34 AM +07 6:49 PM +07
Astronomical Twilight 5:08 AM +07 7:15 PM +07
Moon 3:29 AM +07 (11/30) 3:38 PM +07 (11/30)
Length of Visible Light 12h 23m
Length of Day
11h 38m
Waning Crescent, 10% of the Moon is Illuminated
Nov 30
Waning Crescent
Dec 3
New
Dec 9
First Quarter
Dec 17
Full
Dec 25
Last Quarter

Hourly Weather History & Observations

Time (+07) Temp. Heat Index Dew Point Humidity Pressure Visibility Wind Dir Wind Speed Gust Speed Precip Events Conditions
12:00 AM 77.0 °F - 77.0 °F 100% 29.89 in 3.1 mi Calm Calm - N/A   Overcast
1:00 AM 77 °F - 76 °F 96% 29.87 in 3 mi Calm Calm - -   Mist
1:00 AM 75.2 °F - 75.2 °F 100% 29.86 in 2.5 mi Calm Calm - N/A   Overcast
4:00 AM 76 °F - 76 °F 100% 29.87 in 3 mi Calm Calm - -   Mist
6:00 AM 75.2 °F - 75.2 °F 100% 29.83 in 2.5 mi South 3.5 mph - N/A   Overcast
7:00 AM 76 °F - 76 °F 100% 29.84 in 2 mi Calm Calm - -   Mist
7:00 AM 77.0 °F - 77.0 °F 100% 29.86 in 2.5 mi Calm Calm - N/A   Overcast
8:00 AM 78.8 °F - 78.8 °F 100% 29.86 in 3.1 mi NNE 3.5 mph - N/A   Overcast
9:00 AM 78.8 °F - 78.8 °F 100% 29.89 in 5.0 mi North 3.5 mph - N/A   Mostly Cloudy
10:00 AM 80 °F - 78 °F 93% 29.90 in 5 mi Calm Calm - -   Mist
10:00 AM 80.6 °F 89.3 °F 80.6 °F 100% 29.89 in 5.0 mi Calm Calm - N/A   Mostly Cloudy
11:00 AM 77.0 °F - 77.0 °F 100% 29.89 in 3.1 mi ENE 12.7 mph - N/A Rain Rain
12:00 PM 77.0 °F - 77.0 °F 100% 29.86 in 3.1 mi NNE 6.9 mph - N/A Rain Rain
1:00 PM 80 °F - 77 °F 89% 29.83 in 5 mi NNE 3.5 mph - - Thunderstorm Light Thunderstorm
1:00 PM 78.8 °F - 78.8 °F 100% 29.83 in 6.2 mi NNE 3.5 mph - N/A   Overcast
2:00 PM 82.4 °F 92.4 °F 78.8 °F 89% 29.80 in 6.2 mi NE 10.4 mph - N/A   Overcast
3:00 PM 80.6 °F 89.3 °F 80.6 °F 100% 29.80 in 5.0 mi NE 11.5 mph - N/A   Overcast
4:00 PM 82 °F - 79 °F 87% 29.79 in 5 mi NE 5.8 mph - -   Mist
4:00 PM 82.4 °F 94.0 °F 80.6 °F 94% 29.77 in 6.2 mi NE 11.5 mph - N/A   Overcast
6:00 PM 78.8 °F - 78.8 °F 100% 29.83 in 5.0 mi NNE 6.9 mph - N/A   Mostly Cloudy
7:00 PM 80 °F - 77 °F 89% 29.85 in 4 mi NE 2.3 mph - -   Mist
8:00 PM 78.8 °F - 78.8 °F 100% 29.86 in 5.0 mi North 4.6 mph - N/A   Scattered Clouds